My Profile
  1. Member Settings
  2. My Devices
  3. Sign Out
        More Settings
      Elev 200 ft, 40.340 °N 74.254 °W

      Marlboro, NJ

      Summary

      Temperature (°F)MaxAverageMin
      Max Temperature6138.9423
      Avg Temperature53.7830.2215.19
      Min Temperature5022.977
      Precipitation (in)MaxAverageMinSum
      Precipitation0.130.0100.28
      Dew Point (°F)MaxAverageMin
      Dew Point53.4620.480.81
      Wind (mph)MaxAverageMin
      Wind3017.065
      Gust Wind4424.9816
      Sea Level Pressure (in)MaxAverageMin
      Sea Level Pressure30.2929.9129.14

      Daily Observations

      DateTemp High/LowDew Pt High/LowHumidityWindMax WindWind GustPressurePrecip.Condition
      1/1/2022 56 °F / 50 °F 56 °F / 50 °F 100 % 17 mph - 29.59 in 0 in
      1/2/2022 61 °F / 37 °F 59 °F / 29 °F 97 % 20 mph - 29.49 in 0 in
      1/3/2022 37 °F / 24 °F 28 °F / 8 °F 62 % 23 mph - 29.91 in 0 in
      1/4/2022 34 °F / 19 °F 22 °F / 7 °F 62 % 15 mph - 30.21 in 0 in
      1/5/2022 47 °F / 22 °F 47 °F / 20 °F 98 % 13 mph - 29.77 in 0.03 in
      1/6/2022 40 °F / 32 °F 39 °F / 15 °F 66 % 18 mph - 29.72 in 0 in
      1/7/2022 34 °F / 21 °F 32 °F / 11 °F 86 % 24 mph - 29.68 in 0.01 in
      1/8/2022 34 °F / 18 °F 11 °F / 7 °F 55 % 17 mph - 30.36 in 0 in
      1/9/2022 43 °F / 24 °F 41 °F / 13 °F 84 % 16 mph - 30.01 in 0.04 in
      1/10/2022 39 °F / 24 °F 34 °F / 6 °F 54 % 21 mph - 29.96 in 0 in
      1/11/2022 24 °F / 14 °F 7 °F / -4 °F 46 % 23 mph - 30.3 in 0 in
      1/12/2022 42 °F / 14 °F 22 °F / 4 °F 54 % 18 mph - 30.04 in 0 in
      1/13/2022 46 °F / 27 °F 38 °F / 22 °F 77 % 8 mph - 29.8 in 0 in
      1/14/2022 45 °F / 26 °F 40 °F / 14 °F 73 % 24 mph - 29.62 in 0 in
      1/15/2022 20 °F / 13 °F 5 °F / -5 °F 44 % 16 mph - 30.11 in 0 in
      1/16/2022 46 °F / 8 °F 46 °F / 0 °F 83 % 26 mph - 30 in 0.03 in
      1/17/2022 50 °F / 34 °F 48 °F / 22 °F 85 % 30 mph - 29.08 in 0 in
      1/18/2022 38 °F / 25 °F 30 °F / 14 °F 67 % 22 mph - 29.75 in 0 in
      1/19/2022 51 °F / 25 °F 30 °F / 19 °F 58 % 17 mph - 29.91 in 0 in
      1/20/2022 45 °F / 23 °F 38 °F / 9 °F 83 % 16 mph - 29.98 in 0.13 in
      1/21/2022 24 °F / 17 °F 10 °F / 4 °F 54 % 17 mph - 30.33 in 0 in
      1/22/2022 32 °F / 12 °F 17 °F / 6 °F 62 % 13 mph - 30.16 in 0 in
      1/23/2022 38 °F / 18 °F 26 °F / 8 °F 59 % 10 mph - 29.75 in 0 in
      1/24/2022 36 °F / 23 °F 29 °F / 13 °F 80 % 12 mph - 29.71 in 0 in
      1/25/2022 43 °F / 26 °F 30 °F / 17 °F 66 % 14 mph - 29.81 in 0 in
      1/26/2022 29 °F / 16 °F 17 °F / 4 °F 51 % 15 mph - 30.18 in 0 in
      1/27/2022 33 °F / 11 °F 16 °F / 3 °F 62 % 12 mph - 30.22 in 0 in
      1/28/2022 36 °F / 28 °F 32 °F / 15 °F 83 % 14 mph - 29.88 in 0.01 in
      1/29/2022 30 °F / 11 °F 30 °F / -3 °F 89 % 29 mph - 29.53 in 0 in
      1/30/2022 27 °F / 7 °F 5 °F / -2 °F 56 % 20 mph - 29.87 in 0.01 in
      1/31/2022 33 °F / 9 °F 17 °F / 2 °F 61 % 9 mph - 30.16 in 0.02 in
      essentialaccessibility.com
      We recognize our responsibility to use data and technology for good. We may use or share your data with our data vendors. Take control of your data.
      Glossary